Home > Weather > Peshawar > Past weeks

Flag for Pakistan Past Weather in Peshawar, Pakistan — Yesterday and Last 2 Weeks

Now
99 °F

Scattered clouds.


Feels Like: 106 °F
Forecast: 82 / 106 °F
Wind: 9 mph from Southeast

Location: Peshawar Airport

Current Time: Jun 28, 2016 at 2:43:59 PM

Latest Report: Jun 28, 2016 at 2:00 PM


Visibility: 2 mi

Pressure: 29.65 "Hg

Humidity: 39%

Dew Point: 70 °F

Location of PeshawarLocation

Past Weather in Peshawar — Graph

°F

Peshawar Temperature Yesterday

Maximum temperature yesterday: 102 °F (at 1:00 PM)
Minimum temperature yesterday: 81 °F (at 11:00 PM)
Average temperature yesterday: 91 °F

High & Low Weather Summary for the Past Weeks

 TemperatureHumidityPressure
High108 °F (Jun 14, 4:00 PM)100% (Jun 15, 3:00 PM)30.18 "Hg (Jun 15, 3:00 PM)
Low72 °F (Jun 15, 3:00 PM)23% (Jun 15, 1:00 PM)29.47 "Hg (Jun 16, 5:00 PM)
Average92 °F41%29.59 "Hg
* Reported Jun 13 1:00 PM — Jun 28 1:30 PM, Peshawar, Weather by CustomWeather, © 2016

Note: Actual official high and low records may vary slightly from our data, if they occured in-between our weather recording intervals... More about our weather records

Advertising

Peshawar Weather History for the Previous 24 Hours

Scroll right to see more
 ConditionsComfort  
Time TempWeatherWind HumidityBarometerVisibility
1:30 PM
Tue, Jun 28
97 °FScattered clouds.14 mph42%29.65 "Hg2 mi
1:00 PM97 °FScattered clouds.14 mph42%29.65 "Hg2 mi
12:30 PM95 °FScattered clouds.14 mph44%29.68 "Hg2 mi
12:00 PM95 °FScattered clouds.14 mph44%29.68 "Hg2 mi
11:30 AM93 °FScattered clouds.14 mph49%29.68 "Hg2 mi
11:00 AM93 °FScattered clouds.14 mph49%29.68 "Hg2 mi
10:30 AM88 °FScattered clouds.12 mph55%29.68 "Hg2 mi
10:00 AM88 °FScattered clouds.12 mph55%29.68 "Hg2 mi
9:30 AM88 °FScattered clouds.12 mph55%29.68 "Hg2 mi
9:00 AM88 °FHaze.12 mph55%29.68 "Hg2 mi
8:30 AM86 °FScattered clouds.7 mph59%29.68 "Hg2 mi
8:00 AM86 °FScattered clouds.7 mph59%29.68 "Hg2 mi
7:00 AM84 °FHaze.5 mph62%29.62 "Hg2 mi
6:00 AM81 °FScattered clouds.5 mph70%29.59 "Hg2 mi
4:59 AM79 °FPassing clouds.5 mph74%29.59 "Hg2 mi
4:00 AM79 °FHaze.7 mph65%29.59 "Hg2 mi
3:00 AM81 °FPassing clouds.7 mph62%29.59 "Hg2 mi
2:00 AM81 °FThundershowers. Passing clouds.7 mph62%29.59 "Hg2 mi
1:00 AM81 °FHaze.5 mph51%29.59 "Hg2 mi
12:00 AM81 °FHaze.5 mph51%29.62 "Hg2 mi
11:00 PM
Mon, Jun 27
81 °FPassing clouds.7 mph51%29.62 "Hg2 mi
10:00 PM82 °FPartly cloudy.9 mph48%29.62 "Hg2 mi
9:00 PM84 °FPartly cloudy.9 mph45%29.62 "Hg2 mi
8:00 PM88 °FPartly cloudy.16 mph43%29.56 "Hg2 mi
6:59 PM90 °FBroken clouds.18 mph41%N/A2 mi
6:00 PM90 °FBroken clouds.23 mph41%N/A2 mi
5:00 PM90 °FThunderstorms. Broken clouds.35 mph55%N/A2 mi
4:30 PM91 °FThunderstorms. Broken clouds.35 mph52%N/A2 mi
4:00 PM91 °FThunderstorms. Broken clouds.30 mph52%N/A2 mi
3:30 PM100 °FThunderstorms. Broken clouds.30 mph40%N/A2 mi
3:00 PM100 °FThunderstorms. Broken clouds.18 mph40%N/A2 mi
2:30 PM102 °FHaze.14 mph42%N/A2 mi
2:00 PM102 °FScattered clouds.14 mph42%N/A2 mi
Weather by CustomWeather, © 2016

See weather overviewHow to use our weather pages